FLOCK 2E'-10

Last updated on Feb. 17, 2018, 12:17 a.m. UTC

1 41576U 98067KA  18047.65400982  .07293230  12279-4  11048-2 0  9994
2 41576  51.6201 187.1174 0004788 324.9504  35.0382 16.33417827 98126

Satellite is not in orbit.